Regional Weather Roundup
Issued by NWS

Home | Current Version | Previous Version | Graphics & Text | Print | Product List | Glossary On
Versions: 1 2 3 4 5 6 7 8 9 10 11 12 13 14 15 16 17 18 19 20 21 22 23 24 25 26 27 28 29 30 31 32 33 34 35 36 37 38 39 40 41 42 43 44 45 46 47 48 49 50
000
ASUS45 KSLC 042010
RWRUT

UTAH REGIONAL WEATHER ROUNDUP
NATIONAL WEATHER SERVICE SALT LAKE CITY UT
100 PM MST WED MAR 04 2015

UTZ001>011-023>025-042100-

NORTHERN UTAH

CITY           SKY/WX    TMP DP  RH WIND       PRES   REMARKS
HILL AFB       SUNNY     33  11  39 SW5       30.21S WCI  29
LOGAN          SUNNY     34  18  52 CALM      30.22
OGDEN          SUNNY     34  15  46 VRB5      30.22R WCI  30
PROVO AIRPORT  NOT AVBL
SALT LAKE CITY MOSUNNY   37  19  48 NW9       30.23S WCI  30
VERNAL         SUNNY     30  14  51 S6        30.12S WCI  24
WENDOVER       SUNNY     37  12  35 CALM      30.23S
HEBER CITY     SUNNY     32  18  55 W5        30.16S WCI  27
WEST JORDAN    SUNNY     34  19  55 N6        30.22S WCI  29

$$

UTZ012>022-026-027-042100-

SOUTHERN/CENTRAL UTAH

CITY           SKY/WX    TMP DP  RH WIND       PRES   REMARKS
BRYCE CANYON   SUNNY     26  12  55 N12       30.11R WCI  16
CEDAR CITY       N/A     34  15  46 N10       30.16R WCI  26
HANKSVILLE     SUNNY     41  14  33 CALM      30.15F
MILFORD        MOSUNNY   36  19  50 NE12      30.20R WCI  28
MOAB/CYNLANDS  SUNNY     39  14  36 W7        30.10F WCI  34
PRICE          SUNNY     35  12  38 NW18G24   30.09S WCI  24
ST GEORGE      CLEAR     46  21  36 NW5       30.19S
KANAB          SUNNY     41  18  38 CALM      30.16S

$$

REGIONAL REPORTS     COLORADO/ARIZONA

CITY           SKY/WX    TMP DP  RH WIND       PRES   REMARKS
CRAIG, CO      CLOUDY    21  14  74 SW9       30.10F WCI  11
GRAND JUNCTION MOSUNNY   37  15  40 VRB5      30.09F WCI  33
RIFLE          PTSUNNY   33  15  47 N10G21    30.08R WCI  25
MONTROSE       PTSUNNY   32  18  56 SE9       30.07F WCI  24
CORTEZ         SUNNY     37  19  48 NW8       30.03S WCI  31
PAGE, AZ       SUNNY     44  14  29 N8        30.13S
GRAND CANYON   SUNNY     35  12  38 NE10      30.10R WCI  27
KINGMAN        SUNNY     49  27  42 N13       30.11
FLAGSTAFF      SUNNY     35  16  45 NE9       30.07R WCI  28

$$

REGIONAL REPORTS    NEVADA/IDAHO/WYOMING

CITY           SKY/WX    TMP DP  RH WIND       PRES   REMARKS
LAS VEGAS, NV  SUNNY     55  14  19 CALM      30.14S
ELY            SUNNY     32  10  40 N7        30.18S WCI  26
ELKO           SUNNY     40  13  33 SW8       30.20S WCI  34
POCATELLO, ID  SUNNY     30   5  34 SW6       30.24S WCI  24
EVANSTON, WY   MOSUNNY   26  13  57 W12       30.10R WCI  16
ROCK SPRINGS   PTSUNNY   15  10  80 W6        30.08F WCI   6

$$


USA.gov is the U.S. government's official web portal to all federal, state and local government web resources and services.